This is the latest recevied weather packets stored in our database for station/object WB0OCV. If no packets are shown the sender has not sent any weather packets the latest 10 day(s).
| Time | Temp. | Humidity | Pressure | Rain* | Wind** | Luminosity | Snow |
|---|---|---|---|---|---|---|---|
| 1777647209 | 13.89° C | 55% | 1012.2 hPa | 0 mm | - | 448 W/m² | - |
| 1777646906 | 14.44° C | 54% | 1012.2 hPa | 0 mm | - | 508 W/m² | - |
| 1777646601 | 13.89° C | 56% | 1012.3 hPa | 0 mm | - | 445 W/m² | - |
| 1777646298 | 13.89° C | 54% | 1012.1 hPa | 0 mm | - | 411 W/m² | - |
| 1777645995 | 13.89° C | 52% | 1012.2 hPa | 0 mm | - | 859 W/m² | - |
| 1777645692 | 13.33° C | 56% | 1012.3 hPa | 0 mm | - | 726 W/m² | - |
| 1777645388 | 13.33° C | 57% | 1012.2 hPa | 0 mm | - | 502 W/m² | - |
| 1777645084 | 13.33° C | 57% | 1012.4 hPa | 0 mm | - | 454 W/m² | - |
| 1777644781 | 13.89° C | 55% | 1012.3 hPa | 0 mm | - | 492 W/m² | - |
| 1777644478 | 12.78° C | 57% | 1012 hPa | 0 mm | - | 730 W/m² | - |
| 1777644175 | 12.78° C | 55% | 1012.2 hPa | 0 mm | - | 461 W/m² | - |
| 1777643871 | 12.78° C | 55% | 1012.2 hPa | 0 mm | - | 617 W/m² | - |
| 1777643569 | 12.78° C | 59% | 1012.2 hPa | 0 mm | - | 415 W/m² | - |
| 1777643265 | 13.33° C | 61% | 1012 hPa | 0 mm | - | 491 W/m² | - |
| 1777642962 | 12.78° C | 60% | 1012 hPa | 0 mm | - | 626 W/m² | - |
| 1777642658 | 12.22° C | 60% | 1012 hPa | 0 mm | - | 613 W/m² | - |
| 1777642355 | 12.22° C | 62% | 1012.2 hPa | 0 mm | - | 218 W/m² | - |
| 1777642052 | 11.67° C | 62% | 1012 hPa | 0 mm | - | 178 W/m² | - |
| 1777641748 | 11.67° C | 60% | 1012.1 hPa | 0 mm | - | 229 W/m² | - |
| 1777641443 | 11.67° C | 60% | 1012 hPa | 0 mm | - | 182 W/m² | - |
| 1777641139 | 11.67° C | 62% | 1012.3 hPa | 0 mm | - | 243 W/m² | - |
| 1777640835 | 11.11° C | 65% | 1012.1 hPa | 0 mm | - | 196 W/m² | - |
| 1777640532 | 11.11° C | 67% | 1012.1 hPa | 0 mm | - | 177 W/m² | - |
| 1777640229 | 11.11° C | 66% | 1012.1 hPa | 0 mm | - | 210 W/m² | - |
| 1777639925 | 11.11° C | 66% | 1012.2 hPa | 0 mm | - | 191 W/m² | - |
* Rain latest hour (hover to see other rain measurements)
** Current wind speed in m/s (hover to see current wind gust speed)